SL-16 DEB, 29100

Orbit data source: Space-Track

SL-16 DEB, 29100 is space debris in LEO originally from a launch on Fri, 26 Mar 1993 UTC launched from the Tyuratam Missile And Space Complex (TTMTR). Debris objects in space refer to the collection of defunct objects orbiting the Earth. Examples of debris include non-operational satellites, rocket bodies, and fragments generated from explosions, collisions, or faulty payload assembly.

Loading next visibility...
Identifier
29100, 1993-016AP
Orbit
LEO
Country
Flag of CISCIS
Related business
Manufacturer
Unknown
Mission
Spacecraft
Bus & Motor
Unknown
Mass
Unknown
Launch date (UTC)
1993-03-26 (33 years ago)
Launch vehicle
Unknown
Launch site
Tyuratam Missile And Space Complex (TTMTR)
Object type
Payload
Rocket body
Debris
Shape & HBR
Unknown shape, 0.1 m
Radar Cross Section
Small (<0.1 m²)

Expand to show TLE details & history
Last TLE update: 1 day ago

TLE from 1 day ago
0 SL-16 DEB
1 29100U 93016AP  26254.33998524  .00000198  00000-0  13044-3 0  9996
2 29100  70.7257 250.3286 0077103 312.5704  46.8925 14.12397509243585
Epoch: 2026-09-11T08:09Z
TLE epoch observation values (Epoch: 2026-09-11T08:09:34.724Z)
Latitude
0.00001°
Longitude
137.56917°
Altitude
815.693 km
Speed
7.465 km/s
True Right ascension
16h 41m 18s
True Declination
0° 00' 00"
Sunlit
Object was in daylight at epoch
Visualization orbit readout
Latitude
Unknown
Longitude
Unknown
Altitude
Unknown
Speed
Unknown
Apparent Right ascension
Unknown
Apparent Declination
Unknown
Sunlit
N/A
Visualization observer readout
Local Sidereal Time
07:39:15
Azimuth
Unknown
Elevation
Unknown
Doppler factor
Unknown
Orbital elements
Apogee altitude
904.858 km
Perigee altitude
793.409 km
Semi-major axis
7,227.27 km
Eccentricity
0.00771
Inclination
70.7257°
RAAN
250.3286°
Arg. of periapsis
312.5704°
True anomaly
47.54181°
Mean anomaly
46.8925°
Eccentric anomaly
47.21673°
Mean motion
3.5325 °/min
Orbital period
101.91 mins
BSTAR
0.00013044
Loading maneuver chart data...
Computing Atmospheric mass density...
Loading historical data...
Loading historical data...
Loading historical data...
Loading historical data...
Loading historical data...
Loading historical data...
Loading historical data...

Documentation

Showing up to 5 results
|